Zurück zum Katalog

ARIANE 5 R/B

AktivGTO
NORAD 32389·ROCKET BODY·🇫🇷 France

Gestartet Dec 21, 2007 von Guiana Space Centre

Loading…

TLE

VeraltetSource: Space-Track

Epoche: Sep 13, 2026, 20:43 UTC

1 32389U 07063C   26256.86357631 -.00000101  00000-0  30156-3 0  9992
2 32389   5.7690  67.5707 7122053  61.7565 351.5593  2.30596183157793

Verfolge ARIANE 5 R/B in Echtzeit mit AllMySat

Download on the App Store